User: anonymous   Login
Location: Unspecified
(0.0000°N, 0.0000°E)
Time: 23:24:44
(UTC+00:00)
Language:

LATINSAT B - Orbit

View from above orbital plane
View from above orbital plane
View from above satellite
View from above satellite

Ground track
Ground track

The orbit data is extracted from the following two-line orbital elements,

1 27606U 02058B   24114.37663303  .00002319  00000-0  36413-3 0  9994
2 27606  64.5547 131.3076 0045332 148.1027 212.2834 14.74315630146271
Epoch (UTC): 23 April 2024 09:02:21
Eccentricity: 0.0045332
inclination: 64.5547°
perigee height: 615 km
apogee height: 679 km
right ascension of ascending node: 131.3076°
argument of perigee: 148.1027°
revolutions per day: 14.74315630
mean anomaly at epoch: 212.2834°
orbit number at epoch: 14627

The dashed part of the orbit path shows where the satellite is in the earth's shadow,  

DLR